Location: St. Louis
(38.6270°N, 90.1994°W)
Time: 08:08:37
(UTC-06:00)

Transit 2A - Pass Details

Date: 30 November 2021
Orbit: 591 x 967 km, 66.7° (Epoch: 20 January)

Event Time Altitude Azimuth Distance (km) Brightness Sun altitude
Rises 10:21:17 0° 327° (NNW) 3,661 8.9 26.2°
Reaches altitude 10° 10:23:56 10° 324° (NW) 2,706 8.4 26.4°
Maximum altitude 10:30:10 59° 247° (WSW) 1,077 7.2 26.8°
Drops below altitude 10° 10:36:04 10° 169° (S) 2,558 10.4 27.2°
Sets 10:38:30 0° 166° (SSE) 3,446 10.7 27.4°
